Location: Hawks Ness
(60.2333°N, 1.1667°W)
Time: 08:54:48
(UTC+00:00)

SAR-Lupe-2 - Pass Details

Date: 22 October 2019
Orbit: 480 x 485 km, 98.2° (Epoch: 08 November)

Event Time Altitude Azimuth Distance (km) Brightness Sun altitude
Rises 06:13:15 0° 163° (SSE) 2,539 7.6 -6.6°
Reaches altitude 10° 06:15:18 10° 165° (SSE) 1,663 6.6 -6.3°
Maximum altitude 06:18:53 81° 253° (WSW) 497 3.5 -5.9°
Drops below altitude 10° 06:22:29 10° 341° (NNW) 1,675 6.0 -5.4°
Sets 06:24:33 0° 343° (NNW) 2,560 6.9 -5.2°
